Date String (YYYY-MM-DD hh:mm:ss) UTC,Instrument flags,absolute air pressure of the measurement (hPa),sample flow rate (lpm),inlet stack bypass flow (lpm),air temperature of the measurement (°C),ambient temperature measured by the external sensor (°C),aerosol sample conditioner tube jacket temperature (°C),OPC LED temperature (°C),internal box temperature (°C),relative humidity of the measurement (%),span deviation,mass concentration of particles derived from Lorenz-Mie calculation of OPC scattering (μg/m³),mass concentration of particles derived from Lorenz-Mie calculation of OPC scattering (μg/m³),mass concentration of particles derived from Lorenz-Mie calculation of OPC scattering (μg/m³)
DateTimeUTC,F1_M11,P_M11,Q1_M11,Q2_M11,T1_M11,T2_M11,T3_M11,T4_M11,T5_M11,U1_M11,ZSPAN_M11,X0_M11,X2_M11,X1_M11
2023-12-13 11:00:00,SystemResetWarning,0838.2,4.99,000.00,018.9,018.0,000.0,027.2,020.1,21.7,0000.0,0014.08,0009.40,0008.79
2023-12-13 11:01:00,SystemResetWarning,0838.2,4.99,000.00,018.9,018.0,000.0,027.2,020.1,21.7,0000.0,0013.83,0009.37,0008.78
2023-12-13 11:02:00,SystemResetWarning,0838.2,5.00,000.00,018.9,018.0,000.0,027.2,020.1,21.7,0000.0,0013.49,0009.40,0008.78
2023-12-13 11:03:00,SystemResetWarning,0838.2,5.00,000.00,018.9,018.0,000.0,027.2,020.1,21.7,0000.0,0013.30,0009.43,0008.79
2023-12-13 11:04:00,SystemResetWarning,0838.2,5.01,000.00,018.9,018.0,000.0,027.2,020.1,21.7,0000.0,0012.89,0009.42,0008.79
2023-12-13 11:05:00,SystemResetWarning,0838.2,5.00,000.00,018.9,018.0,000.0,027.2,020.1,21.7,0000.0,0012.93,0009.37,0008.78
2023-12-13 11:06:00,SystemResetWarning,0838.2,5.01,000.00,018.9,018.0,000.0,027.2,020.1,21.7,0000.0,0013.45,0009.34,0008.77
2023-12-13 11:07:00,SystemResetWarning,0838.1,4.99,000.00,018.9,018.0,000.0,027.2,020.1,21.7,0000.0,0013.98,0009.41,0008.77
2023-12-13 11:08:00,SystemResetWarning,0838.2,4.98,000.00,018.9,018.0,000.0,027.2,020.1,21.7,0000.0,0014.24,0009.45,0008.77
2023-12-13 11:09:00,SystemResetWarning,0838.2,4.99,000.00,018.9,018.0,000.0,027.2,020.1,21.6,0000.0,0014.38,0009.52,0008.78
2023-12-13 11:10:00,SystemResetWarning,0838.2,5.01,000.00,018.9,018.0,000.0,027.2,020.1,21.6,0000.0,0014.57,0009.51,0008.77
2023-12-13 11:11:00,SystemResetWarning,0838.2,5.00,000.00,018.9,018.0,000.0,027.2,020.1,21.6,0000.2,0014.58,0009.47,0008.78
2023-12-13 11:12:00,SystemResetWarning,0838.2,5.01,000.00,018.9,018.0,000.0,027.2,020.1,21.6,0000.0,0014.80,0009.49,0008.78
2023-12-13 11:13:00,SystemResetWarning,0838.1,5.00,000.00,018.9,018.0,000.0,027.2,020.1,21.6,0000.0,0014.87,0009.49,0008.77
2023-12-13 11:14:00,SystemResetWarning,0838.2,5.00,000.00,018.9,018.0,000.0,027.2,020.1,21.6,0000.0,0014.82,0009.46,0008.76
2023-12-13 11:15:00,SystemResetWarning,0838.1,5.00,000.00,018.9,018.0,000.0,027.2,020.1,21.6,0000.0,0014.68,0009.45,0008.77
2023-12-13 11:16:00,SystemResetWarning,0838.2,5.00,000.00,018.9,018.0,000.0,027.2,020.1,21.6,0000.0,0014.44,0009.47,0008.77
2023-12-13 11:17:00,SystemResetWarning,0838.2,4.99,000.00,018.9,018.0,000.0,027.2,020.1,21.6,0000.0,0014.10,0009.46,0008.75
2023-12-13 11:18:00,SystemResetWarning,0838.2,5.00,000.00,018.9,018.0,000.0,027.2,020.1,21.6,0000.0,0013.98,0009.41,0008.73
2023-12-13 11:19:00,SystemResetWarning,0838.2,5.00,000.00,018.9,018.0,000.0,027.2,020.1,21.6,0000.0,0013.65,0009.37,0008.74
2023-12-13 11:20:00,SystemResetWarning,0838.2,4.99,000.00,018.9,018.0,000.0,027.2,020.1,21.6,0000.0,0013.47,0009.28,0008.72
2023-12-13 11:21:00,SystemResetWarning,0838.2,5.01,000.00,018.9,018.0,000.0,027.2,020.1,21.6,0000.0,0013.21,0009.24,0008.71
2023-12-13 11:22:00,SystemResetWarning,0838.2,5.01,000.00,018.9,018.0,000.0,027.2,020.1,21.6,0000.0,0013.90,0009.22,0008.68
2023-12-13 11:23:00,SystemResetWarning,0838.2,5.01,000.00,018.9,018.0,000.0,027.2,020.1,21.7,0000.0,0013.70,0009.19,0008.65
2023-12-13 11:24:00,SystemResetWarning,0838.2,5.00,000.00,018.9,018.0,000.0,027.2,020.1,21.7,0000.0,0013.54,0009.12,0008.62
2023-12-13 11:25:00,SystemResetWarning,0838.2,4.99,000.00,018.9,018.0,000.0,027.2,020.1,21.6,0000.0,0013.56,0009.10,0008.57
2023-12-13 11:26:00,SystemResetWarning,0838.2,4.99,000.00,018.9,018.0,000.0,027.2,020.1,21.6,0000.0,0014.00,0009.06,0008.50
2023-12-13 11:27:00,SystemResetWarning,0838.2,5.00,000.00,018.9,018.0,000.0,027.2,020.1,21.6,0000.0,0013.75,0008.95,0008.42
2023-12-13 11:28:00,SystemResetWarning,0838.1,5.01,000.00,018.9,018.0,000.0,027.2,020.0,21.6,0000.0,0013.46,0008.88,0008.34
2023-12-13 11:29:00,SystemResetWarning,0838.1,5.00,000.00,018.9,018.0,000.0,027.2,020.1,21.6,0000.0,0013.02,0008.75,0008.24
2023-12-13 11:30:00,SystemResetWarning,0838.2,4.99,000.00,018.8,018.0,000.0,027.2,020.0,21.6,0000.0,0013.09,0008.60,0008.09
2023-12-13 11:31:00,SystemResetWarning,0838.2,5.00,000.00,018.8,018.0,000.0,027.2,020.0,21.6,0000.0,0013.40,0008.48,0007.95
2023-12-13 11:32:00,SystemResetWarning,0838.2,4.99,000.00,018.8,018.0,000.0,027.2,020.0,21.5,0000.0,0013.40,0008.34,0007.78
2023-12-13 11:33:00,SystemResetWarning,0838.2,5.00,000.00,018.8,017.9,000.0,027.2,020.0,21.5,0000.0,0012.71,0008.16,0007.60
2023-12-13 11:34:00,SystemResetWarning,0838.2,5.00,000.00,018.8,017.9,000.0,027.1,020.0,21.4,0000.0,0012.59,0007.93,0007.39
2023-12-13 11:35:00,SystemResetWarning,0838.2,5.01,000.00,018.8,017.9,000.0,027.1,020.0,21.3,0000.0,0012.47,0007.72,0007.19
2023-12-13 11:36:00,SystemResetWarning,0838.2,5.01,000.00,018.8,017.9,000.0,027.1,020.0,21.2,0000.0,0012.66,0007.53,0007.00
2023-12-13 11:37:00,SystemResetWarning,0838.2,4.99,000.00,018.8,017.9,000.0,027.1,020.0,21.2,0000.0,0012.19,0007.35,0006.84
2023-12-13 11:38:00,SystemResetWarning,0838.1,4.99,000.00,018.8,017.9,000.0,027.1,020.0,21.1,0000.0,0012.39,0007.23,0006.69
2023-12-13 11:39:00,SystemResetWarning,0838.2,5.00,000.00,018.8,017.9,000.0,027.2,020.0,21.1,0000.0,0012.44,0007.10,0006.56
2023-12-13 11:40:00,SystemResetWarning,0838.2,5.01,000.00,018.8,017.9,000.0,027.1,020.0,21.1,0000.0,0012.88,0006.99,0006.42
2023-12-13 11:41:00,SystemResetWarning,0838.2,5.01,000.00,018.8,017.9,000.0,027.1,020.0,21.0,0000.0,0012.85,0006.88,0006.32
2023-12-13 11:42:00,SystemResetWarning,0838.1,5.00,000.00,018.8,017.8,000.0,027.2,020.0,21.0,0000.0,0012.52,0006.76,0006.22
2023-12-13 11:43:00,SystemResetWarning,0838.2,5.00,000.00,018.8,017.8,000.0,027.1,020.0,21.0,0000.0,0012.30,0006.69,0006.16
2023-12-13 11:44:00,SystemResetWarning,0838.2,5.00,000.00,018.8,017.9,000.0,027.1,020.0,20.9,0000.0,0012.01,0006.63,0006.13
2023-12-13 11:45:00,SystemResetWarning,0838.2,4.99,000.00,018.8,017.8,000.0,027.1,020.0,20.9,0000.0,0011.91,0006.62,0006.11
2023-12-13 11:46:00,SystemResetWarning,0838.2,5.00,000.00,018.8,017.8,000.0,027.1,020.0,20.9,0000.0,0011.81,0006.61,0006.09
2023-12-13 11:47:00,SystemResetWarning,0838.2,5.01,000.00,018.8,017.8,000.0,027.2,020.0,20.9,0000.0,0011.37,0006.60,0006.09
2023-12-13 11:48:00,SystemResetWarning,0838.2,5.00,000.00,018.8,017.8,000.0,027.1,020.0,20.9,0000.0,0011.38,0006.57,0006.07
2023-12-13 11:49:00,SystemResetWarning,0838.2,5.01,000.00,018.8,017.8,000.0,027.2,020.0,20.9,0000.0,0011.25,0006.54,0006.06
2023-12-13 11:50:00,SystemResetWarning,0838.2,5.00,000.00,018.8,017.8,000.0,027.2,020.0,20.9,0000.0,0011.00,0006.49,0006.04
2023-12-13 11:51:00,SystemResetWarning,0838.2,5.00,000.00,018.8,017.8,000.0,027.2,020.0,21.0,0000.0,0010.42,0006.49,0006.04
2023-12-13 11:52:00,SystemResetWarning,0838.1,4.99,000.00,018.8,017.8,000.0,027.2,020.0,21.0,0000.0,0010.09,0006.47,0006.03
2023-12-13 11:53:00,SystemResetWarning,0838.2,4.99,000.00,018.7,017.8,000.0,027.2,020.0,21.0,0000.0,0009.98,0006.48,0006.04
2023-12-13 11:54:00,SystemResetWarning,0838.2,5.00,000.00,018.7,017.8,000.0,027.2,020.0,21.0,0000.0,0010.67,0006.46,0006.04
2023-12-13 11:55:00,SystemResetWarning,0838.2,5.00,000.00,018.7,017.8,000.0,027.2,020.0,21.0,0000.0,0010.68,0006.47,0006.03
2023-12-13 11:56:00,SystemResetWarning,0838.2,5.00,000.00,018.7,017.8,000.0,027.2,020.0,21.0,0000.0,0010.88,0006.51,0006.04
2023-12-13 11:57:00,SystemResetWarning,0838.2,5.00,000.00,018.7,017.8,000.0,027.2,020.0,21.0,0000.0,0010.86,0006.51,0006.04
2023-12-13 11:58:00,SystemResetWarning,0838.2,5.00,000.00,018.7,017.8,000.0,027.2,020.0,21.1,0000.0,0010.79,0006.47,0006.02
2023-12-13 11:59:00,SystemResetWarning,0838.2,5.01,000.00,018.7,017.8,000.0,027.2,020.0,21.1,0000.0,0010.66,0006.49,0006.02
